Location: Unspecified
(0.0000°N, 0.0000°E)
Time: 00:52:08
(UTC+00:00)

STARLINK-1061 - Pass Details

Date: 18 January 2020
Orbit: 546 x 548 km, 53.1° (Epoch: 15 January)

Event Time Altitude Azimuth Distance (km) Brightness Sun altitude
Rises 19:06:43 0° 295° (WNW) 2,703 7.8 -13.2°
Reaches altitude 10° 19:09:42 10° 272° (W) 1,814 7.4 -13.9°
Maximum altitude 19:12:11 15° 235° (SW) 1,500 7.0 -14.4°
Drops below altitude 10° 19:14:39 10° 198° (SSW) 1,819 6.8 -15.0°
Sets 19:17:40 0° 175° (S) 2,716 7.4 -15.7°
